Track STARLINK-1802 now! 10-day predictions STARLINK-1802 is classified as:
1 46702U 20073AJ 21021.58335648 -.01003280 00000-0 -14099-1 0 9999 2 46702 53.0539 3.2245 0005444 290.8556 238.1489 15.58887917 1773